DW3200 Weather Reports


time (UTC)temp
F
wind
direction
speed
knots
gust
knots
rain 1hr
in
rain 24hr
in
rain mn
in
humidity
%
barometer
mb
20260902021544 66 53 0.9 0.0 0.00 0.00 0.01 62 1005.5
20260902020019 66 22 0.0 0.0 0.00 0.00 0.01 64 1005.5
20260902014541 65 22 0.9 0.0 0.00 0.00 0.01 65 1005.5
20260902013001 65 22 0.0 0.0 0.00 0.00 0.01 65 1005.2
20260902011501 65 22 1.7 0.0 0.00 0.00 0.01 64 1005.3
20260902010049 66 21 2.6 0.0 0.00 0.00 0.01 64 1005.9
20260902004546 65 323 0.9 0.0 0.00 0.00 0.01 66 1005.9
20260902003045 65 55 3.5 0.0 0.00 0.00 0.01 67 1005.8
20260902001545 65 65 2.6 0.0 0.00 0.00 0.01 65 1006.1
20260902000046 65 65 5.2 0.0 0.00 0.00 0.01 64 1005.8
20260901234600 65 73 7.8 0.0 0.00 0.00 0.01 65 1005.8
20260901233052 65 62 6.1 0.0 0.00 0.00 0.01 62 1006.0
20260901231544 66 48 3.5 0.0 0.00 0.00 0.01 61 1006.2
20260901230049 65 346 0.9 0.0 0.00 0.00 0.01 63 1006.3
20260901224544 65 303 0.0 0.0 0.00 0.00 0.01 65 1006.9
20260901223023 65 303 3.5 0.0 0.00 0.00 0.01 64 1007.2
20260901221555 66 300 4.3 0.0 0.00 0.00 0.01 61 1007.4
20260901220012 66 292 3.5 0.0 0.00 0.00 0.00 58 1007.2
20260901214503 70 290 3.5 0.0 0.00 0.00 0.00 48 1007.4
20260901213047 70 305 4.3 0.0 0.00 0.00 0.00 48 1007.1
20260901211543 72 292 3.5 0.0 0.00 0.00 0.00 42 1007.2
20260901210026 74 307 0.0 0.0 0.00 0.00 0.00 41 1006.4
20260901204533 73 307 0.0 0.0 0.00 0.00 0.00 39 1006.4
20260901203009 73 307 0.0 0.0 0.00 0.00 0.00 39 1006.2
20260901201521 73 307 0.9 0.0 0.00 0.00 0.00 39 1006.1
20260901200106 74 308 3.5 0.0 0.00 0.00 0.00 38 1006.1
20260901194547 80 261 1.7 0.0 0.00 0.00 0.00 30 1005.9
20260901193057 81 267 2.6 0.0 0.00 0.00 0.00 23 1005.9
20260901191528 81 200 3.5 0.0 0.00 0.00 0.00 23 1005.9
20260901190031 80 293 2.6 0.0 0.00 0.00 0.00 26 1005.9
20260901184506 77 200 1.7 0.0 0.00 0.00 0.00 30 1006.0
20260901183005 77 203 4.3 0.0 0.00 0.00 0.00 29 1006.0
20260901181546 78 217 5.2 0.0 0.00 0.00 0.00 28 1005.8
20260901180045 79 175 2.6 0.0 0.00 0.00 0.00 29 1005.5
20260901174529 78 166 2.6 0.0 0.00 0.00 0.00 29 1005.5
20260901173022 76 168 0.9 0.0 0.00 0.00 0.00 32 1005.5
20260901171502 74 168 1.7 0.0 0.00 0.00 0.00 34 1005.5
20260901170100 73 217 0.0 0.0 0.00 0.00 0.00 36 1005.6
20260901164537 71 219 0.9 0.0 0.00 0.00 0.00 39 1005.8
20260901163034 69 219 0.9 0.0 0.00 0.00 0.00 43 1005.9
20260901161524 66 221 0.0 0.0 0.00 0.00 0.00 48 1005.9
20260901160015 63 221 0.0 0.0 0.00 0.00 0.00 53 1005.7
20260901154546 60 221 0.0 0.0 0.00 0.00 0.00 58 1005.8
20260901153042 59 221 0.0 0.0 0.00 0.00 0.00 61 1006.1
20260901151522 58 214 0.9 0.0 0.00 0.00 0.00 65 1006.1
20260901150018 55 5 0.0 0.0 0.00 0.00 0.00 71 1005.9
20260901144557 52 5 0.0 0.0 0.00 0.00 0.00 70 1006.4
20260901143057 52 5 0.0 0.0 0.00 0.00 0.00 76 1006.5
20260901141536 48 5 0.0 0.0 0.00 0.00 0.00 81 1006.6
20260901140030 45 5 0.0 0.0 0.00 0.00 0.00 81 1007.1
20260901134520 44 5 0.0 0.0 0.00 0.00 0.00 81 1007.0
20260901133013 44 5 0.0 0.0 0.00 0.00 0.00 79 1007.1
20260901131554 44 5 0.0 0.0 0.00 0.00 0.00 79 1007.0
20260901130107 44 5 0.0 0.0 0.00 0.00 0.00 78 1007.3
20260901124541 45 5 0.0 0.0 0.00 0.00 0.00 78 1007.2
20260901123036 45 5 0.0 0.0 0.00 0.00 0.00 78 1007.2
20260901121518 45 5 0.0 0.0 0.00 0.00 0.00 77 1007.2
20260901120016 45 5 0.0 0.0 0.00 0.00 0.00 77 1007.3
20260901114600 46 5 0.0 0.0 0.00 0.00 0.00 76 1007.5
20260901113130 47 5 0.0 0.0 0.00 0.00 0.00 76 1007.5
20260901111541 47 5 0.0 0.0 0.00 0.00 0.00 77 1007.7
20260901110052 46 5 0.0 0.0 0.00 0.00 0.00 77 1007.7
20260901104522 46 5 0.0 0.0 0.00 0.00 0.00 77 1007.7
20260901103022 46 5 0.0 0.0 0.00 0.00 0.00 77 1007.6
20260901101504 46 5 0.0 0.0 0.00 0.00 0.00 77 1007.4
20260901100007 46 5 0.0 0.0 0.00 0.00 0.00 77 1007.3
20260901094547 46 5 0.0 0.0 0.00 0.00 0.00 77 1007.5
20260901093045 45 5 0.0 0.0 0.00 0.00 0.00 74 1007.5
20260901091528 47 5 0.0 0.0 0.00 0.00 0.00 74 1007.3
20260901090030 46 5 0.0 0.0 0.00 0.00 0.00 73 1007.4
20260901084524 47 5 0.0 0.0 0.00 0.00 0.00 71 1007.6
20260901083009 49 5 0.0 0.0 0.00 0.00 0.00 72 1007.6
20260901081554 49 5 0.0 0.0 0.00 0.00 0.00 71 1007.6
20260901080048 49 5 0.0 0.0 0.00 0.00 0.00 71 1007.8
20260901074531 50 5 0.0 0.0 0.00 0.00 0.00 69 1007.9
20260901073032 50 5 0.0 0.0 0.00 0.00 0.00 68 1007.8
20260901071512 50 5 0.0 0.0 0.00 0.00 0.00 66 1008.0
20260901070012 52 5 0.0 0.0 0.00 0.00 0.00 66 1008.1
20260901064553 52 5 0.0 0.0 0.00 0.00 0.00 64 1008.1
20260901063052 54 5 0.0 0.0 0.00 0.00 0.00 62 1008.2
20260901061534 54 5 0.0 0.0 0.00 0.00 0.00 62 1008.3
20260901060034 55 5 0.0 0.0 0.00 0.00 0.00 61 1008.3
20260901054515 56 5 0.0 0.0 0.00 0.00 0.00 59 1008.4
20260901053018 57 5 0.0 0.0 0.00 0.00 0.00 58 1008.4
20260901051559 58 5 0.0 0.0 0.00 0.00 0.00 56 1008.5
20260901050055 58 5 0.0 0.0 0.00 0.00 0.00 55 1008.6
20260901044559 60 5 0.0 0.0 0.00 0.00 0.00 52 1008.7
20260901043040 61 5 0.0 0.0 0.00 0.00 0.00 49 1008.7
20260901041519 62 5 0.0 0.0 0.00 0.00 0.00 48 1008.9
20260901040019 64 5 0.0 0.0 0.00 0.00 0.00 45 1008.9
20260901034502 66 5 0.0 0.0 0.00 0.00 0.00 44 1008.9
20260901033002 67 5 0.0 0.0 0.00 0.00 0.00 41 1008.8
20260901031548 69 5 0.0 0.0 0.00 0.00 0.00 37 1008.9
20260901030043 71 5 0.0 0.0 0.00 0.00 0.00 36 1008.7
20260901024526 73 5 0.0 0.0 0.00 0.00 0.00 33 1008.6
20260901023026 74 5 0.0 0.0 0.00 0.00 0.00 32 1008.6